Regional Weather Roundup
Issued by NWS

Home | Current Version | Previous Version | Text Only | Print | Product List | Glossary On
Versions: 1 2 3 4 5 6 7 8 9 10 11 12 13 14 15 16 17 18 19 20 21 22 23 24 25 26 27 28 29 30 31 32 33 34 35 36 37 38 39 40 41 42 43 44 45 46 47 48 49 50
000
ASUS43 KLSX 231607
RWRMO

WEATHER SUMMARY FOR MISSOURI
NATIONAL WEATHER SERVICE SPRINGFIELD MO
1100 AM CDT THU MAR 23 2017

NOTE: "FAIR" INDICATES FEW OR NO CLOUDS BELOW 12,000 FEET WITH NO
       SIGNIFICANT WEATHER AND/OR OBSTRUCTIONS TO VISIBILITY.
       CURRENT SKY AND/OR WEATHER CONDITIONS ARE NOT AVAILABLE FOR
       CHILLICOTHE AND FARMINGTON.

MOZ001>031-035>038-043-044-053-054-231700-
...NORTHERN AND WESTERN MISSOURI...

CITY           SKY/WX    TMP DP  RH WIND       PRES   REMARKS
KANSAS CTY INT MOSUNNY   59  39  47 S20       30.02F
KANSAS C DTWN  MOSUNNY   62  40  44 S17       30.04F
LEE`S SUMMIT   MOSUNNY   59  39  47 S17G25    30.06S
ST JOSEPH      MOSUNNY   61  39  44 S18       30.00F
CHILLICOTHE      N/A     49  33  54 SE14G22   30.10F
KIRKSVILLE     CLOUDY    42  33  70 SE16      30.15F

$$
MOZ066>068-077>081-088>096-101>105-231700-
...SOUTHWEST MISSOURI...

CITY           SKY/WX    TMP DP  RH WIND       PRES   REMARKS
SPRINGFIELD    PTSUNNY   58  36  43 SE24G31   30.13S
JOPLIN         MOSUNNY   65  46  50 S16G24    30.08F
BRANSON        MOSUNNY   59  36  41 SE13      30.19F

$$
MOZ032>034-039>042-045>050-055>058-069>072-231700-
...CENTRAL MISSOURI...

CITY           SKY/WX    TMP DP  RH WIND       PRES   REMARKS
COLUMBIA       PTSUNNY   51  32  48 SE15      30.16S
JEFFERSON CITY SUNNY     57  28  33 SE17      30.16F
ROLLA          CLOUDY    56  28  34 S14       30.16F
SEDALIA        SUNNY     62  34  35 S16       30.11F
WHITEMAN AFB   PTSUNNY   62  38  40 S16G24    30.08S
WARRENSBURG    PTSUNNY   59  36  41 S15       30.08S
OSAGE BEACH    SUNNY    N/A N/A N/A S14       30.14F

$$
MOZ051-052-059>065-231700-
...EAST CENTRAL MISSOURI...

CITY           SKY/WX    TMP DP  RH WIND       PRES   REMARKS
ST LOUIS INTL  CLOUDY    41  35  79 E14       30.28F
SPIRIT OF STL  LGT RAIN  40  36  86 E8        30.27F
ST CHARLES     CLOUDY    38  35  89 E17       30.28F WCI  28

$$
MOZ072>076-082>087-097>100-106>115-231700-
...SOUTH CENTRAL AND SOUTHEAST MISSOURI...

CITY           SKY/WX    TMP DP  RH WIND       PRES   REMARKS
CAPE GIRARDEAU CLOUDY    45  30  55 E12       30.31F
FARMINGTON     CLOUDY    48  30  49 S14       30.28F
POPLAR BLUFF   CLOUDY    50  33  52 E8        30.30S
WEST PLAINS    CLOUDY    53  29  39 S12       30.23F

$$



USA.gov is the U.S. government's official web portal to all federal, state and local government web resources and services.